Location: Unspecified
(0.0000°N, 0.0000°E)
Time: 03:57:56
(UTC+00:00)

Vanguard 1 - Pass Details

Date: 14 February 2018
Orbit: 650 x 3833 km, 34.2° (Epoch: 24 February)

Event Time Altitude Azimuth Distance (km) Brightness Sun altitude
Exits shadow 04:48:52 - 240° (WSW) 4,982 13.2 -20.8°
Reaches altitude 10° 04:49:38 10° 237° (WSW) 4,919 13.2 -20.6°
Maximum altitude 05:00:23 22° 192° (SSW) 4,970 13.6 -18.0°
Drops below altitude 10° 05:15:07 10° 148° (SSE) 6,767 15.0 -14.4°
Sets 05:23:23 0° 134° (SE) 7,971 15.8 -12.4°
